Tracking 19644 objects as of 26-Apr-2019
HD Live streaming from Space Station
objects crossing your sky now

THORAD AGENA D DEB *

Track THORAD AGENA D DEB * now!
10-day predictions


NORAD ID: 6159
Int'l Code: 1970-025MY
Perigee: 1,277.4 km
Apogee: 1,374.1 km
Inclination: 101.3 °
Period: 112.0 minutes
Semi major axis: 7696 km
RCS: 0.0175 m2 (small)
Launch date: April 8, 1970
Source: United States (US)
Launch site: AIR FORCE WESTERN TEST RANGE (AFWTR)

Note: This is SATELLITE DEBRIS
aabbcc
Your satellite tracking list
Your tracking list is empty




NASA's NSSDC Master Catalog

Two Line Element Set (TLE):
1  6159U 70025MY  19115.21038429  .00001216  00000-0  50815-2 0  9992
2  6159 101.2570 199.0975 0062809 268.2163 148.7709 12.85708653320356
Source of the keplerian elements: AFSPC